TimePST,TemperatureF,Dew PointF,Humidity,Sea Level PressureIn,VisibilityMPH,Wind Direction,Wind SpeedMPH,Gust SpeedMPH,PrecipitationIn,Events,Conditions,WindDirDegrees,DateUTC
12:53 AM,37.9,27.0,65,30.06,10.0,WNW,19.6,26.5,N/A,,Clear,300,2013-02-17 08:53:00
1:53 AM,37.0,26.1,65,30.09,10.0,WNW,12.7,-,N/A,,Clear,300,2013-02-17 09:53:00
2:53 AM,37.9,27.0,65,30.08,10.0,NW,19.6,-,N/A,,Clear,310,2013-02-17 10:53:00
3:53 AM,37.0,27.0,67,30.09,10.0,NW,19.6,-,N/A,,Clear,310,2013-02-17 11:53:00
4:53 AM,36.0,27.0,70,30.11,10.0,NW,13.8,-,N/A,,Clear,310,2013-02-17 12:53:00
5:53 AM,35.1,26.1,70,30.12,10.0,NNW,10.4,-,N/A,,Clear,340,2013-02-17 13:53:00
6:53 AM,36.0,25.0,64,30.13,10.0,NW,12.7,-,N/A,,Clear,310,2013-02-17 14:53:00
7:53 AM,37.0,27.0,67,30.14,10.0,WNW,13.8,-,N/A,,Clear,300,2013-02-17 15:53:00
8:53 AM,41.0,27.0,57,30.14,10.0,WNW,13.8,-,N/A,,Clear,300,2013-02-17 16:53:00
9:53 AM,44.1,26.1,49,30.14,10.0,NW,19.6,-,N/A,,Clear,310,2013-02-17 17:53:00
10:53 AM,46.9,25.0,42,30.13,10.0,NW,20.7,31.1,N/A,,Clear,310,2013-02-17 18:53:00
12:53 PM,48.9,23.0,36,30.11,10.0,WNW,21.9,31.1,N/A,,Clear,290,2013-02-17 20:53:00
1:53 PM,48.0,21.9,36,30.11,10.0,WNW,20.7,29.9,N/A,,Clear,300,2013-02-17 21:53:00
2:53 PM,46.9,21.9,37,30.10,10.0,WNW,20.7,29.9,N/A,,Clear,300,2013-02-17 22:53:00
3:53 PM,44.1,21.0,40,30.10,10.0,NW,23.0,31.1,N/A,,Clear,310,2013-02-17 23:53:00
5:53 PM,37.9,21.9,53,30.11,10.0,NW,16.1,-,N/A,,Clear,310,2013-02-18 01:53:00
6:53 PM,36.0,21.9,57,30.11,10.0,NW,11.5,-,N/A,,Clear,320,2013-02-18 02:53:00
7:53 PM,35.1,21.9,59,30.12,10.0,NW,10.4,-,N/A,,Clear,310,2013-02-18 03:53:00
9:53 PM,30.9,21.0,67,30.11,10.0,NW,3.5,-,N/A,,Clear,320,2013-02-18 05:53:00
10:53 PM,28.9,19.9,69,30.11,10.0,East,4.6,-,N/A,,Clear,80,2013-02-18 06:53:00
11:53 PM,28.0,19.0,69,30.09,10.0,Calm,Calm,-,N/A,,Clear,0,2013-02-18 07:53:00